,,,PA_Meas_PMT16A,,PR_Meas_QMR101_102,,RH_Meas_QMH101,,SR_Meas_QMS101,,TA_Meas_QMH101,,GenWind,,GenWind,
date,time,status,PA,status,PR,status,RH,status,SR,status,TA,status,DirAvg,status,SpdAvg,
2012-03-27, 00:00:04,VALID,1001.32,VALID,0,VALID,93.9283,VALID,0,VALID,22.9776,VALID,120,VALID,1.11836,
2012-03-27, 00:01:04,VALID,1001.31,VALID,0,VALID,93.7909,VALID,0,VALID,22.9793,VALID,114,VALID,0.897656,
2012-03-27, 00:02:04,VALID,1001.3,VALID,0,VALID,93.6841,VALID,0,VALID,22.9793,VALID,116,VALID,0.353125,
2012-03-27, 00:03:04,VALID,1001.26,VALID,0,VALID,93.5849,VALID,0,VALID,22.9988,VALID,109,VALID,0.787891,
2012-03-27, 00:04:04,VALID,1001.24,VALID,0,VALID,93.6002,VALID,0,VALID,23.0201,VALID,105,VALID,0.683984,
2012-03-27, 00:05:04,VALID,1001.23,VALID,0,VALID,93.5697,VALID,0,VALID,22.9988,VALID,105,VALID,0.779297,
2012-03-27, 00:06:04,VALID,1001.22,VALID,0,VALID,93.6002,VALID,0,VALID,22.9988,VALID,105,VALID,0.640234,
2012-03-27, 00:07:04,VALID,1001.2,VALID,0,VALID,93.6231,VALID,0,VALID,22.9988,VALID,102,VALID,1.01289,
2012-03-27, 00:08:04,VALID,1001.16,VALID,0,VALID,93.5697,VALID,0,VALID,22.9793,VALID,112,VALID,0.549609,
2012-03-27, 00:09:04,VALID,1001.18,VALID,0,VALID,93.5544,VALID,0,VALID,22.9988,VALID,108,VALID,0.614453,
2012-03-27, 00:10:04,VALID,1001.2,VALID,0,VALID,93.6002,VALID,0,VALID,22.9793,VALID,104,VALID,0.688281,
2012-03-27, 00:11:04,VALID,1001.18,VALID,0,VALID,93.5773,VALID,0,VALID,22.9793,VALID,104,VALID,0.894141,
2012-03-27, 00:12:04,VALID,1001.17,VALID,0,VALID,93.562,VALID,0,VALID,23.0006,VALID,103,VALID,0.760938,
2012-03-27, 00:13:04,VALID,1001.16,VALID,0,VALID,93.5239,VALID,0,VALID,22.9598,VALID,94,VALID,1.0918,
2012-03-27, 00:14:04,VALID,1001.18,VALID,0,VALID,93.562,VALID,0,VALID,22.9793,VALID,96,VALID,0.848828,
2012-03-27, 00:15:04,VALID,1001.18,VALID,0,VALID,93.5926,VALID,0,VALID,22.9793,VALID,83,VALID,0.995313,
2012-03-27, 00:16:04,VALID,1001.15,VALID,0,VALID,93.5163,VALID,0,VALID,22.9811,VALID,83,VALID,0.984375,
2012-03-27, 00:17:04,VALID,1001.16,VALID,0,VALID,93.5391,VALID,0,VALID,22.9581,VALID,63,VALID,0.939062,
2012-03-27, 00:18:04,VALID,1001.14,VALID,0,VALID,93.5773,VALID,0,VALID,23.0006,VALID,54,VALID,1.03477,
2012-03-27, 00:19:04,VALID,1001.12,VALID,0,VALID,93.6307,VALID,0,VALID,22.9988,VALID,43,VALID,1.31406,
2012-03-27, 00:20:04,VALID,1001.13,VALID,0,VALID,93.7375,VALID,0,VALID,22.9988,VALID,30,VALID,1.36211,
2012-03-27, 00:21:04,VALID,1001.11,VALID,0,VALID,93.7909,VALID,0,VALID,22.9988,VALID,41,VALID,1.23398,
2012-03-27, 00:22:04,VALID,1001.12,VALID,0,VALID,93.6994,VALID,0,VALID,22.9988,VALID,72,VALID,1.19219,
2012-03-27, 00:23:04,VALID,1001.11,VALID,0,VALID,93.6002,VALID,0,VALID,22.9598,VALID,84,VALID,0.912891,
2012-03-27, 00:24:04,VALID,1001.08,VALID,0,VALID,93.4628,VALID,0,VALID,22.9598,VALID,83,VALID,1.13086,
2012-03-27, 00:25:04,VALID,1001.1,VALID,0,VALID,93.4323,VALID,0,VALID,22.9403,VALID,86,VALID,0.582422,
2012-03-27, 00:26:04,VALID,1001.11,VALID,0,VALID,93.4018,VALID,0,VALID,22.9208,VALID,86,VALID,0.603125,
2012-03-27, 00:27:04,VALID,1001.12,VALID,0,VALID,93.3942,VALID,0,VALID,22.9208,VALID,94,VALID,0.822656,
2012-03-27, 00:28:04,VALID,1001.11,VALID,0,VALID,93.3637,VALID,0,VALID,22.9208,VALID,94,VALID,0.739844,
2012-03-27, 00:29:04,VALID,1001.12,VALID,0,VALID,93.3866,VALID,0,VALID,22.9208,VALID,94,VALID,0.739453,
2012-03-27, 00:30:04,VALID,1001.11,VALID,0,VALID,93.3942,VALID,0,VALID,22.9208,VALID,94,VALID,0.229687,
2012-03-27, 00:31:04,VALID,1001.14,VALID,0,VALID,93.44,VALID,0,VALID,22.9208,VALID,94,VALID,0,
2012-03-27, 00:32:04,VALID,1001.11,VALID,0,VALID,93.4781,VALID,0,VALID,22.9208,VALID,94,VALID,0,
2012-03-27, 00:33:04,VALID,1001.11,VALID,0,VALID,93.4552,VALID,0,VALID,22.9013,VALID,94,VALID,0,
2012-03-27, 00:34:04,VALID,1001.1,VALID,0,VALID,93.44,VALID,0,VALID,22.9208,VALID,94,VALID,0,
2012-03-27, 00:35:04,VALID,1001.09,VALID,0,VALID,93.4628,VALID,0,VALID,22.9208,VALID,94,VALID,0,
2012-03-27, 00:36:04,VALID,1001.09,VALID,0,VALID,93.4781,VALID,0,VALID,22.9013,VALID,94,VALID,0,
2012-03-27, 00:37:04,VALID,1001.1,VALID,0,VALID,93.4476,VALID,0,VALID,22.9208,VALID,94,VALID,0,
2012-03-27, 00:38:04,VALID,1001.09,VALID,0,VALID,93.4934,VALID,0,VALID,22.9208,VALID,94,VALID,0,
2012-03-27, 00:39:04,VALID,1001.06,VALID,0,VALID,93.5468,VALID,0,VALID,22.9403,VALID,94,VALID,0,
2012-03-27, 00:40:04,VALID,1001.05,VALID,0,VALID,93.4857,VALID,0,VALID,22.9208,VALID,93,VALID,0,
2012-03-27, 00:41:04,VALID,1001.06,VALID,0,VALID,93.5468,VALID,0,VALID,22.9403,VALID,57,VALID,0.297656,
2012-03-27, 00:42:04,VALID,1001.05,VALID,0,VALID,93.6002,VALID,0,VALID,22.9598,VALID,46,VALID,0.826953,
2012-03-27, 00:43:04,VALID,1001.03,VALID,0,VALID,93.6383,VALID,0,VALID,22.9598,VALID,46,VALID,0.804297,
2012-03-27, 00:44:04,VALID,1001.02,VALID,0,VALID,93.6307,VALID,0,VALID,22.9598,VALID,46,VALID,0.70625,
2012-03-27, 00:45:04,VALID,1001.04,VALID,0,VALID,93.6002,VALID,0,VALID,22.9811,VALID,46,VALID,0.539844,
2012-03-27, 00:46:04,VALID,1001.03,VALID,0,VALID,93.6078,VALID,0,VALID,22.9793,VALID,46,VALID,0.280469,
2012-03-27, 00:47:04,VALID,1001.01,VALID,0,VALID,93.6536,VALID,0,VALID,22.9793,VALID,46,VALID,0.516406,
2012-03-27, 00:48:04,VALID,1001.02,VALID,0,VALID,93.6383,VALID,0,VALID,22.9793,VALID,46,VALID,0.705469,
2012-03-27, 00:49:04,VALID,1001.02,VALID,0,VALID,93.646,VALID,0,VALID,22.9793,VALID,46,VALID,0.742969,
2012-03-27, 00:50:04,VALID,1001,VALID,0,VALID,93.6002,VALID,0,VALID,22.9793,VALID,46,VALID,0.742188,
2012-03-27, 00:51:04,VALID,1001,VALID,0,VALID,93.5926,VALID,0,VALID,22.9793,VALID,46,VALID,0.817187,
2012-03-27, 00:52:04,VALID,1001.02,VALID,0,VALID,93.5391,VALID,0,VALID,22.9793,VALID,46,VALID,0.723047,
2012-03-27, 00:53:04,VALID,1001,VALID,0,VALID,93.562,VALID,0,VALID,22.9793,VALID,46,VALID,0.612109,
2012-03-27, 00:54:04,VALID,1001.02,VALID,0,VALID,93.6002,VALID,0,VALID,22.9988,VALID,59,VALID,0.709375,
2012-03-27, 00:55:04,VALID,1001.05,VALID,0,VALID,93.6383,VALID,0,VALID,22.9988,VALID,65,VALID,0.698047,
2012-03-27, 00:56:04,VALID,1001.02,VALID,0,VALID,93.5773,VALID,0,VALID,22.9988,VALID,86,VALID,0.675,
2012-03-27, 00:57:04,VALID,1001.01,VALID,0,VALID,93.6154,VALID,0,VALID,23.0183,VALID,123,VALID,0.990234,
2012-03-27, 00:58:04,VALID,1001.02,VALID,0,VALID,93.6078,VALID,0,VALID,22.9988,VALID,123,VALID,1.10742,
2012-03-27, 00:59:04,VALID,1001.01,VALID,0,VALID,93.5849,VALID,0,VALID,22.9988,VALID,123,VALID,1.01914,
2012-03-27, 01:00:04,VALID,1001,VALID,0,VALID,93.6002,VALID,0,VALID,23.0183,VALID,113,VALID,1.0668,
2012-03-27, 01:01:04,VALID,1001.03,VALID,0,VALID,93.6078,VALID,0,VALID,23.0183,VALID,117,VALID,1.11758,
2012-03-27, 01:02:04,VALID,1001.03,VALID,0,VALID,93.6612,VALID,0,VALID,23.0183,VALID,92,VALID,0.597656,
2012-03-27, 01:03:04,VALID,1001.03,VALID,0,VALID,93.6688,VALID,0,VALID,23.0183,VALID,78,VALID,0.719141,
2012-03-27, 01:04:04,VALID,1001.04,VALID,0,VALID,93.6994,VALID,0,VALID,23.0396,VALID,79,VALID,0.830469,
2012-03-27, 01:05:04,VALID,1001.06,VALID,0,VALID,93.6536,VALID,0,VALID,23.0183,VALID,57,VALID,0.744922,
2012-03-27, 01:06:04,VALID,1001.02,VALID,0,VALID,93.6383,VALID,0,VALID,23.0183,VALID,57,VALID,0.4125,
2012-03-27, 01:07:04,VALID,1001.04,VALID,0,VALID,93.6078,VALID,0,VALID,22.9988,VALID,56,VALID,0.548437,
2012-03-27, 01:08:04,VALID,1001.03,VALID,0,VALID,93.5926,VALID,0,VALID,22.9988,VALID,56,VALID,0.338672,
2012-03-27, 01:09:04,VALID,1001.02,VALID,0,VALID,93.5468,VALID,0,VALID,23.0006,VALID,86,VALID,1.19062,
2012-03-27, 01:10:04,VALID,1001.01,VALID,0,VALID,93.44,VALID,0,VALID,22.9598,VALID,62,VALID,0.711328,
2012-03-27, 01:11:04,VALID,1001.03,VALID,0,VALID,93.3637,VALID,0,VALID,22.9598,VALID,69,VALID,0.698828,
2012-03-27, 01:12:04,VALID,1001,VALID,0,VALID,93.3179,VALID,0,VALID,22.9615,VALID,49,VALID,0.003125,
2012-03-27, 01:13:04,VALID,1000.98,VALID,0,VALID,93.3103,VALID,0,VALID,22.9598,VALID,95,VALID,0.715234,
2012-03-27, 01:14:04,VALID,1000.97,VALID,0,VALID,93.2874,VALID,0,VALID,22.9403,VALID,102,VALID,0.757422,
2012-03-27, 01:15:04,VALID,1000.97,VALID,0,VALID,93.2721,VALID,0,VALID,22.9403,VALID,107,VALID,1.08828,
2012-03-27, 01:16:04,VALID,1000.96,VALID,0,VALID,93.2492,VALID,0,VALID,22.9403,VALID,119,VALID,1.62695,
2012-03-27, 01:17:04,VALID,1000.94,VALID,0,VALID,93.2263,VALID,0,VALID,22.9403,VALID,124,VALID,1.38281,
2012-03-27, 01:18:04,VALID,1000.97,VALID,0,VALID,93.1348,VALID,0,VALID,22.9598,VALID,120,VALID,1.37617,
2012-03-27, 01:19:04,VALID,1000.99,VALID,0,VALID,92.9974,VALID,0,VALID,22.9811,VALID,117,VALID,1.06523,
2012-03-27, 01:20:04,VALID,1000.99,VALID,0,VALID,92.9135,VALID,0,VALID,22.9403,VALID,117,VALID,0.876172,
2012-03-27, 01:21:04,VALID,1000.99,VALID,0,VALID,92.8983,VALID,0,VALID,22.9598,VALID,115,VALID,0.065625,
2012-03-27, 01:22:04,VALID,1001,VALID,0,VALID,92.8601,VALID,0,VALID,22.8995,VALID,113,VALID,0.535156,
2012-03-27, 01:23:04,VALID,1001.01,VALID,0,VALID,92.7914,VALID,0,VALID,22.9208,VALID,106,VALID,0.180859,
2012-03-27, 01:24:04,VALID,1001.02,VALID,0,VALID,92.7533,VALID,0,VALID,22.942,VALID,74,VALID,0.888672,
2012-03-27, 01:25:04,VALID,1001,VALID,0,VALID,92.7838,VALID,0,VALID,22.942,VALID,67,VALID,0.901563,
2012-03-27, 01:26:04,VALID,1001,VALID,0,VALID,92.8754,VALID,0,VALID,22.9403,VALID,49,VALID,0.836719,
2012-03-27, 01:27:04,VALID,1001.01,VALID,0,VALID,93.0127,VALID,0,VALID,22.9403,VALID,46,VALID,0.470313,
2012-03-27, 01:28:04,VALID,1000.98,VALID,0,VALID,93.089,VALID,0,VALID,22.9598,VALID,46,VALID,0.164453,
2012-03-27, 01:29:04,VALID,1000.96,VALID,0,VALID,93.15,VALID,0,VALID,22.9598,VALID,46,VALID,0.109766,
2012-03-27, 01:30:04,VALID,1000.95,VALID,0,VALID,93.1805,VALID,0,VALID,22.9598,VALID,46,VALID,0,
2012-03-27, 01:31:04,VALID,1000.91,VALID,0,VALID,93.1958,VALID,0,VALID,22.9598,VALID,46,VALID,0,
2012-03-27, 01:32:04,VALID,1000.93,VALID,0,VALID,93.234,VALID,0,VALID,22.9598,VALID,46,VALID,0.132422,
2012-03-27, 01:33:04,VALID,1000.95,VALID,0,VALID,93.2645,VALID,0,VALID,22.9615,VALID,46,VALID,0.114844,
2012-03-27, 01:34:04,VALID,1000.95,VALID,0,VALID,93.2721,VALID,0,VALID,22.9598,VALID,46,VALID,0.046875,
2012-03-27, 01:35:04,VALID,1000.99,VALID,0,VALID,93.234,VALID,0,VALID,22.9403,VALID,97,VALID,0.721484,
2012-03-27, 01:36:04,VALID,1000.99,VALID,0,VALID,93.1729,VALID,0,VALID,22.9403,VALID,97,VALID,0.257031,
2012-03-27, 01:37:04,VALID,1001.03,VALID,0,VALID,93.1729,VALID,0,VALID,22.9403,VALID,97,VALID,0.120703,
2012-03-27, 01:38:04,VALID,1001.01,VALID,0,VALID,93.1424,VALID,0,VALID,22.9403,VALID,97,VALID,0.100391,
2012-03-27, 01:39:04,VALID,1001.01,VALID,0,VALID,93.1882,VALID,0,VALID,22.9615,VALID,97,VALID,0.203125,
2012-03-27, 01:40:04,VALID,1001.05,VALID,0,VALID,93.1805,VALID,0,VALID,22.9403,VALID,97,VALID,0.280078,
2012-03-27, 01:41:04,VALID,1001.04,VALID,0,VALID,93.1195,VALID,0,VALID,22.9598,VALID,97,VALID,0.0488281,
2012-03-27, 01:42:04,VALID,1001.08,VALID,0,VALID,93.0814,VALID,0,VALID,22.9615,VALID,97,VALID,0,
2012-03-27, 01:43:04,VALID,1001.08,VALID,0,VALID,93.0203,VALID,0,VALID,22.9403,VALID,97,VALID,0,
2012-03-27, 01:44:04,VALID,1001.08,VALID,0,VALID,92.9822,VALID,0,VALID,22.9403,VALID,97,VALID,0.05,
2012-03-27, 01:45:04,VALID,1001.11,VALID,0,VALID,92.9898,VALID,0,VALID,22.9208,VALID,97,VALID,0,
2012-03-27, 01:46:04,VALID,1001.08,VALID,0,VALID,93.0508,VALID,0,VALID,22.9208,VALID,97,VALID,0.0015625,
2012-03-27, 01:47:04,VALID,1001.07,VALID,0,VALID,93.0814,VALID,0,VALID,22.942,VALID,95,VALID,0.570703,
2012-03-27, 01:48:04,VALID,1001.08,VALID,0,VALID,92.9974,VALID,0,VALID,22.9208,VALID,91,VALID,0.519922,
2012-03-27, 01:49:04,VALID,1001.04,VALID,0,VALID,92.9517,VALID,0,VALID,22.9208,VALID,91,VALID,0.490234,
2012-03-27, 01:50:04,VALID,1001.04,VALID,0,VALID,92.9898,VALID,0,VALID,22.9208,VALID,112,VALID,0.689453,
2012-03-27, 01:51:04,VALID,1001.06,VALID,0,VALID,92.9898,VALID,0,VALID,22.9208,VALID,113,VALID,0.583984,
2012-03-27, 01:52:04,VALID,1001.01,VALID,0,VALID,92.9898,VALID,0,VALID,22.9208,VALID,113,VALID,0.662891,
2012-03-27, 01:53:04,VALID,1001.02,VALID,0,VALID,92.9593,VALID,0,VALID,22.919,VALID,113,VALID,0.599609,
2012-03-27, 01:54:04,VALID,1000.99,VALID,0,VALID,92.9364,VALID,0,VALID,22.9403,VALID,113,VALID,0.501953,
2012-03-27, 01:55:04,VALID,1001,VALID,0,VALID,92.944,VALID,0,VALID,22.9403,VALID,112,VALID,0.301562,
2012-03-27, 01:56:04,VALID,1000.99,VALID,0,VALID,92.9135,VALID,0,VALID,22.9403,VALID,112,VALID,0,
2012-03-27, 01:57:04,VALID,1000.99,VALID,0,VALID,92.9822,VALID,0,VALID,22.9598,VALID,112,VALID,0,
2012-03-27, 01:58:04,VALID,1000.99,VALID,0,VALID,92.9517,VALID,0,VALID,22.9403,VALID,113,VALID,0.491797,
2012-03-27, 01:59:04,VALID,1000.99,VALID,0,VALID,92.8601,VALID,0,VALID,22.9403,VALID,113,VALID,0.870703,
2012-03-27, 02:00:04,VALID,1000.98,VALID,0,VALID,92.8677,VALID,0,VALID,22.9403,VALID,113,VALID,0.742969,
2012-03-27, 02:01:04,VALID,1001.01,VALID,0,VALID,92.9059,VALID,0,VALID,22.9403,VALID,113,VALID,0.595312,
2012-03-27, 02:02:04,VALID,1001,VALID,0,VALID,92.9669,VALID,0,VALID,22.9403,VALID,110,VALID,0.811719,
2012-03-27, 02:03:04,VALID,1001.02,VALID,0,VALID,92.883,VALID,0,VALID,22.9208,VALID,107,VALID,0.834375,
2012-03-27, 02:04:04,VALID,1001,VALID,0,VALID,92.9288,VALID,0,VALID,22.9208,VALID,107,VALID,0.992578,
2012-03-27, 02:05:04,VALID,1000.98,VALID,0,VALID,92.9822,VALID,0,VALID,22.9403,VALID,107,VALID,0.930469,
2012-03-27, 02:06:04,VALID,1000.98,VALID,0,VALID,92.9822,VALID,0,VALID,22.9403,VALID,107,VALID,0.692578,
2012-03-27, 02:07:04,VALID,1001.01,VALID,0,VALID,93.0203,VALID,0,VALID,22.9208,VALID,107,VALID,0.721484,
2012-03-27, 02:08:04,VALID,1000.99,VALID,0,VALID,93.0203,VALID,0,VALID,22.9208,VALID,107,VALID,0.342187,
2012-03-27, 02:09:04,VALID,1001.01,VALID,0,VALID,93.0814,VALID,0,VALID,22.8995,VALID,107,VALID,0.415625,
2012-03-27, 02:10:04,VALID,1000.99,VALID,0,VALID,93.0966,VALID,0,VALID,22.88,VALID,108,VALID,0.55625,
2012-03-27, 02:11:04,VALID,1000.99,VALID,0,VALID,93.0585,VALID,0,VALID,22.88,VALID,113,VALID,0.623047,
2012-03-27, 02:12:04,VALID,1001,VALID,0,VALID,93.0508,VALID,0,VALID,22.88,VALID,140,VALID,0.928516,
2012-03-27, 02:13:04,VALID,1001.01,VALID,0,VALID,93.0127,VALID,0,VALID,22.9013,VALID,140,VALID,0.791016,
2012-03-27, 02:14:04,VALID,1001.01,VALID,0,VALID,92.8448,VALID,0,VALID,22.88,VALID,133,VALID,1.11641,
2012-03-27, 02:15:04,VALID,1001.04,VALID,0,VALID,92.6999,VALID,0,VALID,22.9013,VALID,133,VALID,0.367578,
2012-03-27, 02:16:04,VALID,1001.07,VALID,0,VALID,92.6312,VALID,0,VALID,22.8605,VALID,133,VALID,0.220703,
2012-03-27, 02:17:04,VALID,1001.1,VALID,0,VALID,92.5549,VALID,0,VALID,22.8605,VALID,51,VALID,0.575391,
2012-03-27, 02:18:04,VALID,1001.13,VALID,0,VALID,92.616,VALID,0,VALID,22.8605,VALID,13,VALID,0.602344,
2012-03-27, 02:19:04,VALID,1001.16,VALID,0,VALID,92.6923,VALID,0,VALID,22.88,VALID,351,VALID,0.635938,
2012-03-27, 02:20:04,VALID,1001.19,VALID,0,VALID,92.7762,VALID,0,VALID,22.8818,VALID,351,VALID,0.268359,
2012-03-27, 02:21:04,VALID,1001.17,VALID,0,VALID,92.822,VALID,0,VALID,22.8818,VALID,351,VALID,0,
2012-03-27, 02:22:04,VALID,1001.17,VALID,0,VALID,92.8067,VALID,0,VALID,22.8818,VALID,351,VALID,0.161719,
2012-03-27, 02:23:04,VALID,1001.17,VALID,0,VALID,92.8067,VALID,0,VALID,22.8818,VALID,352,VALID,0.346875,
2012-03-27, 02:24:04,VALID,1001.18,VALID,0,VALID,92.7685,VALID,0,VALID,22.8818,VALID,358,VALID,0.394922,
2012-03-27, 02:25:04,VALID,1001.17,VALID,0,VALID,92.7914,VALID,0,VALID,22.8605,VALID,54,VALID,0.421484,
2012-03-27, 02:26:04,VALID,1001.18,VALID,0,VALID,92.7762,VALID,0,VALID,22.8605,VALID,55,VALID,0.536719,
2012-03-27, 02:27:04,VALID,1001.17,VALID,0,VALID,92.7457,VALID,0,VALID,22.8605,VALID,118,VALID,0.947656,
2012-03-27, 02:28:04,VALID,1001.2,VALID,0,VALID,92.6541,VALID,0,VALID,22.88,VALID,132,VALID,1.03398,
2012-03-27, 02:29:04,VALID,1001.18,VALID,0,VALID,92.616,VALID,0,VALID,22.9013,VALID,136,VALID,0.795313,
2012-03-27, 02:30:04,VALID,1001.2,VALID,0,VALID,92.6007,VALID,0,VALID,22.9208,VALID,137,VALID,0.756641,
2012-03-27, 02:31:04,VALID,1001.23,VALID,0,VALID,92.616,VALID,0,VALID,22.8995,VALID,137,VALID,0.414844,
2012-03-27, 02:32:04,VALID,1001.21,VALID,0,VALID,92.6999,VALID,0,VALID,22.919,VALID,137,VALID,0.0679687,
2012-03-27, 02:33:04,VALID,1001.23,VALID,0,VALID,92.7228,VALID,0,VALID,22.8995,VALID,137,VALID,0,
2012-03-27, 02:34:04,VALID,1001.25,VALID,0,VALID,92.8296,VALID,0,VALID,22.9208,VALID,137,VALID,0,
2012-03-27, 02:35:04,VALID,1001.24,VALID,0,VALID,92.883,VALID,0,VALID,22.9403,VALID,137,VALID,0,
2012-03-27, 02:36:04,VALID,1001.23,VALID,0,VALID,92.9288,VALID,0,VALID,22.9403,VALID,137,VALID,0,
2012-03-27, 02:37:04,VALID,1001.25,VALID,0,VALID,92.9059,VALID,0,VALID,22.9403,VALID,137,VALID,0,
2012-03-27, 02:38:04,VALID,1001.27,VALID,0,VALID,92.8601,VALID,0,VALID,22.9403,VALID,137,VALID,0,
2012-03-27, 02:39:04,VALID,1001.3,VALID,0,VALID,92.7914,VALID,0,VALID,22.9403,VALID,137,VALID,0,
2012-03-27, 02:40:04,VALID,1001.32,VALID,0,VALID,92.7533,VALID,0,VALID,22.919,VALID,137,VALID,0,
2012-03-27, 02:41:04,VALID,1001.31,VALID,0,VALID,92.6923,VALID,0,VALID,22.919,VALID,137,VALID,0,
2012-03-27, 02:42:04,VALID,1001.3,VALID,0,VALID,92.7151,VALID,0,VALID,22.9403,VALID,137,VALID,0,
2012-03-27, 02:43:04,VALID,1001.31,VALID,0,VALID,92.738,VALID,0,VALID,22.919,VALID,137,VALID,0,
2012-03-27, 02:44:04,VALID,1001.3,VALID,0,VALID,92.738,VALID,0,VALID,22.9403,VALID,137,VALID,0,
2012-03-27, 02:45:04,VALID,1001.31,VALID,0,VALID,92.7304,VALID,0,VALID,22.919,VALID,137,VALID,0,
2012-03-27, 02:46:04,VALID,1001.27,VALID,0,VALID,92.7228,VALID,0,VALID,22.9403,VALID,137,VALID,0,
2012-03-27, 02:47:04,VALID,1001.29,VALID,0,VALID,92.6388,VALID,0,VALID,22.9403,VALID,137,VALID,0,
2012-03-27, 02:48:04,VALID,1001.26,VALID,0,VALID,92.5397,VALID,0,VALID,22.919,VALID,137,VALID,0,
2012-03-27, 02:49:04,VALID,1001.28,VALID,0,VALID,92.5015,VALID,0,VALID,22.9403,VALID,137,VALID,0,
2012-03-27, 02:50:04,VALID,1001.29,VALID,0,VALID,92.5091,VALID,0,VALID,22.919,VALID,137,VALID,0,
2012-03-27, 02:51:04,VALID,1001.3,VALID,0,VALID,92.5473,VALID,0,VALID,22.9403,VALID,137,VALID,0,
2012-03-27, 02:52:04,VALID,1001.28,VALID,0,VALID,92.5626,VALID,0,VALID,22.9385,VALID,137,VALID,0,
2012-03-27, 02:53:04,VALID,1001.3,VALID,0,VALID,92.5778,VALID,0,VALID,22.9598,VALID,137,VALID,0,
2012-03-27, 02:54:04,VALID,1001.29,VALID,0,VALID,92.5854,VALID,0,VALID,22.9581,VALID,137,VALID,0,
2012-03-27, 02:55:04,VALID,1001.27,VALID,0,VALID,92.5931,VALID,0,VALID,22.9598,VALID,137,VALID,0,
2012-03-27, 02:56:04,VALID,1001.28,VALID,0,VALID,92.6541,VALID,0,VALID,22.9581,VALID,137,VALID,0,
2012-03-27, 02:57:04,VALID,1001.29,VALID,0,VALID,92.616,VALID,0,VALID,22.9598,VALID,137,VALID,0,
2012-03-27, 02:58:04,VALID,1001.28,VALID,0,VALID,92.6465,VALID,0,VALID,22.9385,VALID,137,VALID,0,
2012-03-27, 02:59:04,VALID,1001.29,VALID,0,VALID,92.7075,VALID,0,VALID,22.9793,VALID,137,VALID,0,
2012-03-27, 03:00:04,VALID,1001.28,VALID,0,VALID,92.7151,VALID,0,VALID,22.9581,VALID,137,VALID,0,
2012-03-27, 03:01:04,VALID,1001.28,VALID,0,VALID,92.7533,VALID,0,VALID,22.9581,VALID,137,VALID,0,
2012-03-27, 03:02:04,VALID,1001.29,VALID,0,VALID,92.7228,VALID,0,VALID,22.9793,VALID,137,VALID,0,
2012-03-27, 03:03:04,VALID,1001.29,VALID,0,VALID,92.677,VALID,0,VALID,22.9793,VALID,137,VALID,0,
2012-03-27, 03:04:04,VALID,1001.31,VALID,0,VALID,92.6617,VALID,0,VALID,22.9598,VALID,137,VALID,0,
2012-03-27, 03:05:04,VALID,1001.31,VALID,0,VALID,92.6465,VALID,0,VALID,22.9581,VALID,137,VALID,0,
2012-03-27, 03:06:04,VALID,1001.31,VALID,0,VALID,92.6083,VALID,0,VALID,22.9581,VALID,137,VALID,0,
2012-03-27, 03:07:04,VALID,1001.34,VALID,0,VALID,92.5931,VALID,0,VALID,22.9385,VALID,137,VALID,0,
2012-03-27, 03:08:04,VALID,1001.29,VALID,0,VALID,92.6465,VALID,0,VALID,22.9581,VALID,137,VALID,0,
2012-03-27, 03:09:04,VALID,1001.29,VALID,0,VALID,92.677,VALID,0,VALID,22.9385,VALID,137,VALID,0,
2012-03-27, 03:10:04,VALID,1001.27,VALID,0,VALID,92.6617,VALID,0,VALID,22.9598,VALID,137,VALID,0,
2012-03-27, 03:11:04,VALID,1001.29,VALID,0,VALID,92.7151,VALID,0,VALID,22.9793,VALID,137,VALID,0,
2012-03-27, 03:12:04,VALID,1001.31,VALID,0,VALID,92.822,VALID,0,VALID,22.9793,VALID,137,VALID,0,
2012-03-27, 03:13:04,VALID,1001.3,VALID,0,VALID,92.8448,VALID,0,VALID,22.9793,VALID,134,VALID,0,
2012-03-27, 03:14:04,VALID,1001.3,VALID,0,VALID,92.7914,VALID,0,VALID,22.9581,VALID,134,VALID,0,
2012-03-27, 03:15:04,VALID,1001.3,VALID,0,VALID,92.7685,VALID,0,VALID,22.9793,VALID,134,VALID,0,
2012-03-27, 03:16:04,VALID,1001.31,VALID,0,VALID,92.8067,VALID,0,VALID,22.9581,VALID,134,VALID,0,
2012-03-27, 03:17:04,VALID,1001.3,VALID,0,VALID,92.738,VALID,0.104696,VALID,22.9581,VALID,134,VALID,0,
2012-03-27, 03:18:04,VALID,1001.33,VALID,0,VALID,92.6694,VALID,0,VALID,22.9581,VALID,134,VALID,0,
2012-03-27, 03:19:04,VALID,1001.34,VALID,0,VALID,92.6617,VALID,0,VALID,22.9793,VALID,134,VALID,0,
2012-03-27, 03:20:04,VALID,1001.32,VALID,0,VALID,92.677,VALID,0,VALID,22.9385,VALID,134,VALID,0,
2012-03-27, 03:21:04,VALID,1001.34,VALID,0,VALID,92.7228,VALID,0,VALID,22.9793,VALID,134,VALID,0,
2012-03-27, 03:22:04,VALID,1001.34,VALID,0,VALID,92.7685,VALID,0,VALID,22.9598,VALID,134,VALID,0,
2012-03-27, 03:23:04,VALID,1001.32,VALID,0,VALID,92.9517,VALID,0,VALID,22.9793,VALID,134,VALID,0,
2012-03-27, 03:24:04,VALID,1001.34,VALID,0,VALID,92.9822,VALID,0,VALID,22.9793,VALID,54,VALID,0,
2012-03-27, 03:25:04,VALID,1001.33,VALID,0,VALID,93.0661,VALID,0,VALID,22.9988,VALID,41,VALID,0,
2012-03-27, 03:26:04,VALID,1001.36,VALID,0,VALID,93.1424,VALID,0,VALID,22.9776,VALID,41,VALID,0,
2012-03-27, 03:27:04,VALID,1001.35,VALID,0,VALID,93.2111,VALID,0,VALID,22.9988,VALID,38,VALID,0,
2012-03-27, 03:28:04,VALID,1001.34,VALID,0,VALID,93.2416,VALID,0.104696,VALID,22.9988,VALID,37,VALID,0,
2012-03-27, 03:29:04,VALID,1001.34,VALID,0,VALID,93.2568,VALID,0,VALID,22.9581,VALID,37,VALID,0,
2012-03-27, 03:30:04,VALID,1001.32,VALID,0,VALID,93.3026,VALID,0,VALID,22.9581,VALID,37,VALID,0,
2012-03-27, 03:31:04,VALID,1001.32,VALID,0,VALID,93.356,VALID,0,VALID,22.9793,VALID,47,VALID,0,
2012-03-27, 03:32:04,VALID,1001.31,VALID,0,VALID,93.4171,VALID,0,VALID,22.9581,VALID,60,VALID,1.04023,
2012-03-27, 03:33:04,VALID,1001.3,VALID,0,VALID,93.4781,VALID,0,VALID,22.9793,VALID,72,VALID,1.11641,
2012-03-27, 03:34:04,VALID,1001.28,VALID,0,VALID,93.5468,VALID,0,VALID,22.9793,VALID,76,VALID,1.20117,
2012-03-27, 03:35:04,VALID,1001.29,VALID,0,VALID,93.6307,VALID,0,VALID,22.9793,VALID,77,VALID,1.05859,
2012-03-27, 03:36:04,VALID,1001.3,VALID,0,VALID,93.6536,VALID,0,VALID,22.9793,VALID,76,VALID,0.638281,
2012-03-27, 03:37:04,VALID,1001.32,VALID,0,VALID,93.6688,VALID,0.104696,VALID,22.9581,VALID,58,VALID,0.607813,
2012-03-27, 03:38:04,VALID,1001.33,VALID,0,VALID,93.646,VALID,0,VALID,22.9598,VALID,33,VALID,0.642187,
2012-03-27, 03:39:04,VALID,1001.37,VALID,0,VALID,93.6154,VALID,0,VALID,22.9598,VALID,22,VALID,0.713281,
2012-03-27, 03:40:04,VALID,1001.35,VALID,0,VALID,93.6154,VALID,0,VALID,22.9403,VALID,22,VALID,0.617578,
2012-03-27, 03:41:04,VALID,1001.36,VALID,0,VALID,93.6154,VALID,0,VALID,22.9403,VALID,23,VALID,0.683594,
2012-03-27, 03:42:04,VALID,1001.38,VALID,0,VALID,93.5697,VALID,0,VALID,22.9013,VALID,24,VALID,0.745313,
2012-03-27, 03:43:04,VALID,1001.38,VALID,0,VALID,93.5926,VALID,0,VALID,22.9013,VALID,27,VALID,0.797266,
2012-03-27, 03:44:04,VALID,1001.37,VALID,0,VALID,93.6231,VALID,0,VALID,22.8995,VALID,29,VALID,0.757031,
2012-03-27, 03:45:04,VALID,1001.39,VALID,0,VALID,93.646,VALID,0,VALID,22.8995,VALID,29,VALID,0.670313,
2012-03-27, 03:46:04,VALID,1001.39,VALID,0,VALID,93.646,VALID,0,VALID,22.9013,VALID,29,VALID,0.689844,
2012-03-27, 03:47:04,VALID,1001.41,VALID,0,VALID,93.707,VALID,0,VALID,22.88,VALID,29,VALID,0.855859,
2012-03-27, 03:48:04,VALID,1001.37,VALID,0,VALID,93.7909,VALID,0,VALID,22.9013,VALID,19,VALID,0.908984,
2012-03-27, 03:49:04,VALID,1001.37,VALID,0,VALID,93.7985,VALID,0,VALID,22.8605,VALID,32,VALID,1.43438,
2012-03-27, 03:50:04,VALID,1001.35,VALID,0,VALID,93.7909,VALID,0,VALID,22.8818,VALID,44,VALID,1.20273,